CAPE
747 680 357 245 89 21 4 0 0 0 5 14 8 0 0 0 0 6 9 6 0 0 9 42 46 16 0 5 13 2 14 78 34 17 0 0 2 2 0 0 0 0
912 896 382 338 118 118 136 72 1 0 3 10 1 0 0 0 24 6 0 0 0 0 0 0 0 0 0 0 0 0 0 0 0 0 0 0 0 0 0 0 0 0
657 494 339 24 70 132 134 210 96 27 1 0 0 0 0 0 0 0 0 0 0 0 0 0 0 0 0 0 0 0 0 0 0 0 0 0 0 0 0 0 0 0
515 270 309 382 13 204 244 94 44 6 182 0 0 0 0 0 0 0 0 0 0 0 0 0 0 0 0 0 0 0 0 0 0 0 0 0 0 0 0 0 0 0
474 290 202 237 360 304 208 218 45 2 6 27 15 0 0 0 0 0 0 0 0 0 0 0 0 0 0 0 0 0 0 0 0 0 0 0 0 0 0 0 0 0
309 252 179 7 147 173 365 294 46 5 11 14 6 1 0 0 0 0 0 0 0 0 0 0 0 0 0 0 0 0 0 0 0 0 0 0 0 0 0 0 0 0
482 402 240 142 169 509 108 184 121 25 15 5 1 6 0 0 0 0 0 0 0 0 0 0 0 0 0 0 0 0 0 0 0 0 0 0 0 0 0 0 0 0
573 428 263 187 109 358 333 330 238 185 125 67 28 8 15 0 0 0 0 0 0 0 0 0 0 0 0 0 0 0 0 0 0 0 0 0 0 0 0 0 0 0
513 396 264 156 88 222 634 509 366 471 200 120 41 27 1 1 0 0 0 0 0 0 0 0 0 0 0 0 0 0 0 0 0 0 0 0 0 0 0 0 0 0
807 486 504 408 279 225 568 749 513 515 323 289 117 103 1 24 95 0 0 0 0 0 0 0 0 0 0 0 0 0 1 0 0 0 0 0 0 0 0 0 0 0
889 650 596 535 480 327 749 791 800 590 427 340 332 289 70 46 43 3 0 0 1 0 0 0 0 0 0 0 0 0 0 0 0 0 4 0 0 0 0 0 0 0
878 793 658 727 661 641 1015 1006 780 682 711 528 422 422 322 220 28 11 2 3 4 0 0 0 0 1 1 10 50 77 126 139 119 76 33 3 2 3 0 0 0 0
934 658 654 816 928 744 801 818 704 643 700 675 526 529 575 487 246 111 15 7 5 8 8 5 30 120 315 312 358 538 618 520 575 450 276 206 72 40 31 25 26 11
953 915 627 647 713 742 773 746 645 676 676 675 652 580 641 580 474 287 158 88 117 108 185 425 417 304 244 190 276 413 485 501 544 575 671 756 513 301 162 102 80 56
1047 980 849 600 558 738 827 814 764 822 723 577 608 618 658 656 558 432 392 269 386 563 604 361 321 249 169 230 284 302 223 312 436 488 576 561 673 638 631 456 351 166
1120 1141 1094 979 813 736 822 949 726 500 656 103 622 490 628 646 600 550 474 614 586 526 414 504 493 346 21 0 2 133 219 88 212 397 476 553 588 450 314 411 390 414
1036 1194 1270 1303 1166 973 584 564 777 980 946 422 310 425 613 592 595 627 535 495 474 566 511 408 184 146 0 0 0 0 20 197 379 413 380 468 411 76 510 586 690 734
838 908 984 1103 1163 1151 1096 967 954 919 971 908 857 600 455 725 715 588 571 490 364 322 686 884 427 5 0 0 0 0 0 156 407 335 197 249 335 280 169 110 168 304
704 736 860 855 907 919 932 918 853 923 948 984 1059 925 879 712 588 603 110 294 232 78 192 445 428 0 0 0 0 0 0 21 84 86 47 24 18 147 183 124 172 204
282 576 758 880 922 870 752 780 807 806 902 953 1060 994 799 532 360 81 60 149 161 184 265 464 465 143 1 0 0 0 0 17 75 6 22 102 290 160 203 275 146 196
0 122 561 640 741 883 796 627 795 850 943 995 948 890 762 615 572 132 44 26 305 403 439 466 672 403 0 0 0 0 0 1 1 76 99 87 76 84 128 84 74 83
0 0 2 240 513 733 778 759 755 841 956 1100 1000 807 685 646 524 507 459 340 122 790 757 552 1411 179 0 0 0 0 0 4 86 45 0 9 27 55 26 22 16 26
0 0 0 0 11 383 634 872 889 876 1018 1086 1057 872 696 603 675 592 706 848 794 765 694 588 774 0 0 0 0 0 0 4 29 0 1 5 6 7 2 0 0 0
0 0 0 0 0 4 185 593 892 1085 1197 1104 1010 961 824 752 795 699 700 785 702 542 517 656 430 210 0 0 0 0 6 10 2 0 0 0 0 0 0 0 0 0
0 0 0 0 0 0 48 131 487 1031 1228 1156 1068 960 844 839 698 811 713 639 503 502 9 207 8 85 0 35 0 104 75 3 0 1 0 0 0 0 0 0 0 0
0 0 0 0 0 0 0 80 144 422 713 1016 1132 1005 913 800 660 654 690 546 489 379 38 25 15 9 6 97 16 13 180 150 6 5 1 0 0 0 0 0 0 0
Wind_Speed
17 15 15 16 nan nan nan nan nan nan nan nan nan nan nan nan nan nan nan nan nan nan nan nan nan nan nan nan nan nan nan nan nan nan nan nan nan nan nan nan nan nan
16 15 14 16 17 20 23 nan nan nan nan nan nan nan nan nan nan nan nan nan nan nan nan nan nan nan nan nan nan nan nan nan nan nan nan nan nan nan nan nan nan nan
17 17 17 nan nan 19 22 24 nan nan nan nan nan nan nan nan nan nan nan nan nan nan nan nan nan nan nan nan nan nan nan nan nan nan nan nan nan nan nan nan nan nan
20 19 18 16 nan 18 18 nan nan nan 24 nan nan nan nan nan nan nan nan nan nan nan nan nan nan nan nan nan nan nan nan nan nan nan nan nan nan nan nan nan nan nan
21 19 17 16 16 18 17 14 nan nan nan nan nan nan nan nan nan nan nan nan nan nan nan nan nan nan nan nan nan nan nan nan nan nan nan nan nan nan nan nan nan nan
22 20 17 nan 16 18 16 14 nan nan nan nan nan nan nan nan nan nan nan nan nan nan nan nan nan nan nan nan nan nan nan nan nan nan nan nan nan nan nan nan nan nan
23 21 19 17 17 16 16 15 18 nan nan nan nan nan nan nan nan nan nan nan nan nan nan nan nan nan nan nan nan nan nan nan nan nan nan nan nan nan nan nan nan nan
22 19 18 17 18 17 16 16 17 17 18 nan nan nan nan nan nan nan nan nan nan nan nan nan nan nan nan nan nan nan nan nan nan nan nan nan nan nan nan nan nan nan
20 17 17 16 nan 17 17 17 18 17 17 17 nan nan nan nan nan nan nan nan nan nan nan nan nan nan nan nan nan nan nan nan nan nan nan nan nan nan nan nan nan nan
18 16 17 16 16 16 17 17 17 18 18 16 16 15 nan nan nan nan nan nan nan nan nan nan nan nan nan nan nan nan nan nan nan nan nan nan nan nan nan nan nan nan
16 17 17 16 15 15 16 16 17 18 18 17 18 17 nan nan nan nan nan nan nan nan nan nan nan nan nan nan nan nan nan nan nan nan nan nan nan nan nan nan nan nan
17 17 16 16 15 16 16 17 16 17 18 17 18 18 20 20 nan nan nan nan nan nan nan nan nan nan nan nan nan nan 24 24 23 nan nan nan nan nan nan nan nan nan
18 16 15 15 15 16 17 17 17 16 16 17 18 18 21 22 23 24 nan nan nan nan nan nan nan 24 25 24 25 26 25 25 23 23 23 23 nan nan nan nan nan nan
20 17 15 15 15 16 18 18 18 18 18 19 20 21 22 23 25 27 28 nan 31 29 29 29 28 26 26 25 26 27 27 26 26 25 25 24 23 23 23 23 nan nan
22 22 21 19 18 18 19 20 21 22 22 22 24 25 26 25 27 28 30 31 33 32 32 31 30 30 29 27 27 27 27 27 28 27 26 26 26 25 26 26 26 25
23 24 24 24 23 22 23 25 25 26 26 25 26 27 29 29 30 30 29 30 33 34 32 31 31 31 nan nan nan 26 26 nan 28 27 28 28 28 27 26 27 26 26
28 27 26 26 27 27 26 28 26 27 29 29 28 28 30 31 29 29 28 29 31 34 33 32 32 31 nan nan nan nan nan 30 29 27 27 27 27 nan 27 29 29 30
34 33 31 30 30 30 31 32 30 29 30 32 34 34 33 34 31 29 30 31 33 33 33 32 31 nan nan nan nan nan nan 31 30 27 25 24 25 27 29 28 30 30
35 35 34 34 34 33 33 32 32 32 32 32 35 37 40 38 34 33 32 32 33 nan 30 30 29 nan nan nan nan nan nan nan nan nan nan nan nan 27 29 30 30 30
38 37 36 36 36 36 35 33 31 30 31 33 35 38 40 41 39 nan nan 34 33 31 31 32 32 39 nan nan nan nan nan nan nan nan nan 31 33 33 35 36 36 35
nan 42 40 38 37 36 35 33 32 30 30 32 35 38 39 41 41 39 nan nan 33 32 32 34 38 47 nan nan nan nan nan nan nan nan nan nan nan nan 36 nan nan nan
nan nan nan 40 38 38 36 35 35 33 32 33 34 37 39 40 40 38 36 35 33 33 34 35 44 49 nan nan nan nan nan nan nan nan nan nan nan nan nan nan nan nan
nan nan nan nan nan 40 39 39 38 38 38 38 36 37 38 39 40 40 39 37 35 35 37 37 48 nan nan nan nan nan nan nan nan nan nan nan nan nan nan nan nan nan
nan nan nan nan nan nan 44 42 42 42 42 42 40 40 38 37 39 40 41 42 43 42 42 41 48 52 nan nan nan nan nan nan nan nan nan nan nan nan nan nan nan nan
nan nan nan nan nan nan nan 48 46 45 46 47 46 44 40 39 38 38 40 43 45 46 nan 47 nan nan nan nan nan 47 nan nan nan nan nan nan nan nan nan nan nan nan
nan nan nan nan nan nan nan nan 52 50 47 46 47 47 43 40 38 37 38 42 44 45 nan nan nan nan nan nan nan nan 33 39 nan nan nan nan nan nan nan nan nan nan
Wind_Direction
296 293 283 271 nan nan nan nan nan nan nan nan nan nan nan nan nan nan nan nan nan nan nan nan nan nan nan nan nan nan nan nan nan nan nan nan nan nan nan nan nan nan
297 295 291 283 277 275 276 nan nan nan nan nan nan nan nan nan nan nan nan nan nan nan nan nan nan nan nan nan nan nan nan nan nan nan nan nan nan nan nan nan nan nan
296 302 302 nan nan 298 291 284 nan nan nan nan nan nan nan nan nan nan nan nan nan nan nan nan nan nan nan nan nan nan nan nan nan nan nan nan nan nan nan nan nan nan
302 303 303 303 nan 312 305 nan nan nan 275 nan nan nan nan nan nan nan nan nan nan nan nan nan nan nan nan nan nan nan nan nan nan nan nan nan nan nan nan nan nan nan
297 298 303 307 309 309 312 306 nan nan nan nan nan nan nan nan nan nan nan nan nan nan nan nan nan nan nan nan nan nan nan nan nan nan nan nan nan nan nan nan nan nan
289 293 299 nan 303 306 308 310 nan nan nan nan nan nan nan nan nan nan nan nan nan nan nan nan nan nan nan nan nan nan nan nan nan nan nan nan nan nan nan nan nan nan
290 292 296 295 294 294 301 300 293 nan nan nan nan nan nan nan nan nan nan nan nan nan nan nan nan nan nan nan nan nan nan nan nan nan nan nan nan nan nan nan nan nan
291 290 293 294 296 293 297 299 296 293 293 nan nan nan nan nan nan nan nan nan nan nan nan nan nan nan nan nan nan nan nan nan nan nan nan nan nan nan nan nan nan nan
295 295 297 299 nan 297 296 296 294 290 288 286 nan nan nan nan nan nan nan nan nan nan nan nan nan nan nan nan nan nan nan nan nan nan nan nan nan nan nan nan nan nan
306 305 307 304 301 296 294 289 290 287 285 287 287 278 nan nan nan nan nan nan nan nan nan nan nan nan nan nan nan nan nan nan nan nan nan nan nan nan nan nan nan nan
309 309 308 309 305 298 290 285 281 283 283 285 283 279 nan nan nan nan nan nan nan nan nan nan nan nan nan nan nan nan nan nan nan nan nan nan nan nan nan nan nan nan
304 306 307 307 303 296 290 283 280 281 283 281 281 279 278 278 nan nan nan nan nan nan nan nan nan nan nan nan nan nan 259 258 258 nan nan nan nan nan nan nan nan nan
303 304 301 296 294 292 285 280 280 282 285 283 280 280 282 283 285 286 nan nan nan nan nan nan nan 268 263 258 257 257 256 257 258 261 261 261 nan nan nan nan nan nan
295 298 296 291 284 282 280 277 276 278 278 277 276 279 281 284 288 289 285 nan 278 277 275 271 270 268 264 258 254 254 254 253 253 255 256 258 259 259 259 258 nan nan
289 290 291 292 288 281 275 273 274 274 277 278 280 280 279 280 284 286 285 283 280 276 273 270 270 267 261 254 249 250 249 250 249 249 251 252 252 256 258 257 255 257
284 285 287 289 289 286 281 277 274 276 277 278 280 281 281 282 283 283 284 284 282 278 274 271 269 267 nan nan nan 253 250 nan 254 253 251 252 250 247 248 252 254 258
273 275 277 279 281 283 283 281 279 280 282 283 283 285 284 284 286 287 286 285 283 278 274 269 267 265 nan nan nan nan nan 260 263 260 257 259 258 nan 250 253 257 261
271 271 271 271 272 275 278 281 283 285 284 284 284 285 282 279 282 285 285 285 283 280 271 266 265 nan nan nan nan nan nan 275 274 270 266 267 259 247 248 254 259 263
268 270 271 271 273 272 270 270 274 278 280 282 285 285 283 282 282 282 280 278 280 nan 272 264 260 nan nan nan nan nan nan nan nan nan nan nan nan 259 253 255 260 266
271 272 273 273 271 271 272 272 273 275 275 277 279 281 283 283 284 nan nan 277 277 279 275 268 264 272 nan nan nan nan nan nan nan nan nan 271 270 267 267 267 269 271
nan 271 272 272 273 272 271 270 272 274 277 277 277 279 280 281 282 281 nan nan 272 272 270 267 262 271 nan nan nan nan nan nan nan nan nan nan nan nan 269 nan nan nan
nan nan nan 272 271 271 270 271 272 276 278 278 278 279 277 276 276 275 274 271 269 267 268 267 264 274 nan nan nan nan nan nan nan nan nan nan nan nan nan nan nan nan
nan nan nan nan nan 269 271 272 274 277 279 279 280 279 277 275 273 273 270 269 268 264 262 266 267 nan nan nan nan nan nan nan nan nan nan nan nan nan nan nan nan nan
nan nan nan nan nan nan 270 273 275 277 279 279 279 279 277 274 270 269 266 263 262 261 260 257 264 271 nan nan nan nan nan nan nan nan nan nan nan nan nan nan nan nan
nan nan nan nan nan nan nan 270 273 276 278 279 279 278 275 270 268 266 266 264 262 261 nan 263 nan nan nan nan nan 275 nan nan nan nan nan nan nan nan nan nan nan nan
nan nan nan nan nan nan nan nan 269 271 274 276 277 275 272 269 268 266 267 265 264 263 nan nan nan nan nan nan nan nan 263 258 nan nan nan nan nan nan nan nan nan nan